LiveATC.Net - Listen to live air traffic control over the Internet!


ICAO: KHRL  IATA: HRL   Airport: Valley International Airport
City: Harlingen   State/Province: Texas
Country: United States   Continent: North America
KHRL METAR Weather: KHRL 081052Z AUTO 01016G25KT 3SM BR OVC004 16/16 A3006 RMK AO2 PK WND 02026/0959 SLP178 T01610161
KHRL Flight Activity (FlightAware)
KHRL Airport Info   (AirNav) (iFlightPlanner)
KHRL VFR Sectional Chart   (iFlightPlanner) 
KHRL IFR Low Chart   (iFlightPlanner) 
KHRL Tower/CTAF
Feed Status: UP   Listeners: 0
Listen right in your browser - requires Flash (in browser, requires Flash)
Click here to listen with your own player (launches your MP3 player)
KHRL Tower/CTAF Audio Archives
FacilityFrequency
Harlingen Tower119.300


NOTICE

Unauthorized use prohibited. See LiveATC.net Terms of Service


Find LiveATC Audio Streams


Airport/ARTCC Code

Frequency
(e.g., 124.400, 128.75)
Site-wide search

Browse LiveATC Feeds
LiveATC Coverage Map
Top 50 LiveATC Feeds
Bad Weather Areas

LiveATC FAQ
Offer a LiveATC Feed
Contact LiveATC.net
Press Inquiries

LiveATC on iPhone
LiveATC on Android

Windows Phone
Windows 8/10

LiveATC Mobile
(Mobile browser)

ATC Audio Archives
Interesting Recordings

LiveATC Forums


Home Page
About LiveATC.net
Make a Donation
LiveATC Store

Terms of Use
Privacy Policy

Canadian Air Freqs

AIRMETs/SIGMETs

FAA Airport Status
Nat'l Airspace Status
Arrival Demand Charts


Server Software By:
Icecast.org
Liquidsoap